This demonstration page uses our WeatherBlox Daily Observations layout. Learn more.

Left ArrowRight Arrow

Hourly Observations for July 13, 2015

Temp ( °F °C ) Dew Point ( °F °C ) Humidity (%) Winds ( mph kmh ) Pressure ( in mb ) Visibility ( mi km ) Precip ( " mm )
12:52 am 00:52 Clear 77 25 72 22.2 85 85 S 7 11 29.91 1013 10 16 0.00 0.00
1:52 am 01:52 Clear 76 24.4 72 22.2 88 88 S 6 9 29.90 1013 10 16 0.00 0.00
2:52 am 02:52 Clear 75 23.9 71 21.7 88 88 S 6 9 29.89 1012 10 16 0.00 0.00
3:52 am 03:52 Clear 74 23.3 71 21.7 91 91 S 6 9 29.88 1012 10 16 0.00 0.00
4:52 am 04:52 Clear 74 23.3 70 21.1 88 88 S 8 13 29.88 1012 10 16 0.00 0.00
5:52 am 05:52 Clear 74 23.3 70 21.1 88 88 S 7 11 29.87 1012 10 16 0.00 0.00
6:52 am 06:52 Sunny 74 23.3 70 21.1 88 88 S 7 11 29.87 1012 10 16 0.00 0.00
7:52 am 07:52 Sunny 78 25.6 71 21.7 79 79 SSW 9 15 29.87 1012 10 16 0.00 0.00
8:52 am 08:52 Sunny 82 27.8 70 21.1 67 67 SW 10 17 29.87 1012 10 16 0.00 0.00
9:52 am 09:52 Sunny 85 29.4 71 21.7 63 63 SW 14 22 29.84 1011 10 16 0.00 0.00
10:52 am 10:52 Sunny 87 30.6 72 22.2 61 61 SW 15 24 29.84 1010 10 16 0.00 0.00
11:52 am 11:52 Sunny 90 32.2 72 22.2 56 56 WSW 12 19 29.83 1010 10 16 0.00 0.00
12:52 pm 12:52 Sunny 91 32.8 74 23.3 57 57 SSW 14 22 29.82 1010 10 16 0.00 0.00
1:52 pm 13:52 Sunny 92 33.3 74 23.3 56 56 SSW 15 24 29.80 1009 10 16 0.00 0.00
2:52 pm 14:52 Sunny 93 33.9 75 23.9 56 56 SSW 18 30 29.78 1009 10 16 0.00 0.00
3:52 pm 15:52 Sunny 93 33.9 75 23.9 56 56 SSW 12 19 29.77 1008 10 16 0.00 0.00
4:52 pm 16:52 Sunny 93 33.9 74 23.3 54 54 SSW 13 20 29.76 1008 10 16 0.00 0.00
5:52 pm 17:52 Sunny 92 33.3 74 23.3 56 56 SSW 14 22 29.75 1008 10 16 0.00 0.00
6:52 pm 18:52 Sunny 91 32.8 75 23.9 59 59 SSW 8 13 29.75 1008 10 16 0.00 0.00
7:52 pm 19:52 Sunny 88 31.1 75 23.9 66 66 SW 7 11 29.77 1008 10 16 0.00 0.00
8:52 pm 20:52 Clear 84 28.9 76 24.4 77 77 S 3 6 29.78 1009 10 16 0.00 0.00
9:52 pm 21:52 Clear 82 27.8 75 23.9 79 79 S 9 15 29.77 1008 10 16 0.00 0.00
10:52 pm 22:52 Clear 81 27.2 75 23.9 82 82 SSW 7 11 29.77 1008 10 16 0.00 0.00
11:52 pm 23:52 Clear 81 27.2 74 23.3 79 79 SSW 8 13 29.75 1008 10 16 0.00 0.00

Powered by AerisWeather